{"data":{"norad_id":27825,"epoch":"2026-05-24T19:23:47.114880Z","epoch_age_seconds":91918,"freshness":"FRESH","line1":"1 27825U 03026A   26144.80818420  .00000119  00000+0  00000+0 0  9992","line2":"2 27825   8.8058  32.0753 0003306 358.8908 186.3891  1.00273120 84114","mean_motion":1.0027312,"eccentricity":0.0003306,"inclination_deg":8.8058,"raan_deg":32.0753,"arg_perigee_deg":358.8908,"mean_anomaly_deg":186.3891,"bstar":0,"rev_number":8411,"period_min":1436.0777843554,"perigee_km":35772.28117972,"apogee_km":35800.160253042,"semimajor_km":42164.357716381,"source":"CELESTRAK","updated_at":"2026-05-25T13:38:13.815896Z"}}